Location: ???????
(55.4362°N, 38.1183°E)
Time: 18:13:57
(UTC+00:00)

ATLAS CENTAUR R/B - Pass Details

Date: 17 June 2021
Orbit: 472 x 671 km, 64.6° (Epoch: 13 June)

Event Time Altitude Azimuth Distance (km) Brightness Sun altitude
Rises 20:02:41 0° 307° (NW) 2,775 6.0 -9.1°
Reaches altitude 10° 20:05:09 10° 294° (WNW) 1,910 4.7 -9.2°
Maximum altitude 20:08:39 24° 239° (WSW) 1,252 3.0 -9.3°
Enters shadow 20:12:14 10° 186° (S) 1,977 3.6 -9.5°
